Regional Weather Roundup
Issued by NWS Charleston, SC

Current Version | Previous Version | Text Only | Print | Product List | Glossary On
Versions: 1 2 3 4 5 6 7 8 9 10 11 12 13 14 15 16 17 18 19 20 21 22 23 24 25 26 27 28 29 30 31 32 33 34 35 36 37 38 39 40 41 42 43 44 45 46 47 48 49 50
000
ASUS42 KCHS 080627
RWRCHS

REGIONAL WEATHER ROUNDUP
NATIONAL WEATHER SERVICE CHARLESTON SC
200 AM EDT WED JUL 08 2015

NOTE: "FAIR" INDICATES FEW OR NO CLOUDS BELOW 12,000 FEET WITH NO
SIGNIFICANT WEATHER AND/OR OBSTRUCTIONS TO VISIBILITY.

NOT ALL STATIONS ARE QUALITY CONTROLLED BY THE NATIONAL
WEATHER SERVICE. USE DATA WITH CAUTION...ESPECIALLY
DEWPOINT OBSERVATIONS.

SCZ027-030-031-034>040-042>050-080700-
...SOUTHEAST SOUTH CAROLINA...

CITY           SKY/WX    TMP DP  RH WIND       PRES   REMARKS
N CHARLESTON   CLEAR     76  73  91 S5        30.14F
6HR MIN TEMP:  76; 6HR MAX TEMP:  81; 6HR PCP: TRACE;

WATERFRONT PAR   N/A     81  77  88 S6        30.12F
MOUNT PLEASANT FAIR      79  75  89 S3        30.14S
JOHNS ISLAND   FAIR      81  75  83 SW5       30.14F
PINOPOLIS      NOT AVBL
MONCKS CORNER  FAIR      75  73  94 CALM      30.14S
SUMMERVILLE    FAIR      73  73 100 CALM      30.15S
BEAUFORT MCAS  CLEAR     75  72  90 SW3       30.14F
6HR MIN TEMP:  75; 6HR MAX TEMP:  81;

BEAUFORT ARPT  FAIR      75  73  94 CALM      30.14S
HILTON HEAD IS CLEAR     75  73  94 CALM      30.15F
WALTERBORO     PTCLDY    73  72  94 SW3       30.15F
ALLENDALE      FAIR      75  70  83 CALM      30.14S

...SOUTHERN MIDLANDS AND PEE DEE...

CITY           SKY/WX    TMP DP  RH WIND       PRES   REMARKS
GEORGETOWN     NOT AVBL
KINGSTREE      NOT AVBL
ORANGEBURG     MOCLDY    73  70  90 CALM      30.14S
6HR MIN TEMP:  73; 6HR MAX TEMP:  81;

BARNWELL       FAIR      75  72  88 CALM      30.15S
AIKEN          NOT AVBL
MANNING        FAIR      73  72  94 CALM      30.14S
COLUMBIA       MOCLDY    78  70  76 CALM      30.13S
6HR MIN TEMP:  78; 6HR MAX TEMP:  89;

SUMTER         MOCLDY    76  71  83 SW6       30.11F
6HR MIN TEMP:  76; 6HR MAX TEMP:  84;

FLORENCE       PTCLDY    76  72  87 S6        30.13S
6HR MIN TEMP:  76; 6HR MAX TEMP:  85;

MYRTLE BEACH   CLEAR     79  72  78 SW5       30.15F
N MYRTLE BEACH CLEAR     80  75  84 SW10      30.14F
6HR MIN TEMP:  80; 6HR MAX TEMP:  82;


$$

GAZ063-065-086>088-099>101-113>116-118-119-134>141-150-080700-
...SOUTHEAST GEORGIA...

CITY           SKY/WX    TMP DP  RH WIND       PRES   REMARKS
SAVANNAH ARPT  PTCLDY    74  70  87 CALM      30.15F
6HR MIN TEMP:  73; 6HR MAX TEMP:  77;

HUNTER AAF     PTCLDY    75  74  97 S5        30.12F
6HR MIN TEMP:  75; 6HR MAX TEMP:  80;

FORT STEWART   CLEAR     72  69  92 SE3       30.12F
6HR MIN TEMP:  72; 6HR MAX TEMP:  74;

STATESBORO     NOT AVBL
SYLVANIA       PTCLDY    74  73  94 CALM      30.15F
CLAXTON        FAIR      70  70 100 CALM      30.15S

...CSRA...CENTRAL AND FAR SOUTHEAST GEORGIA...

CITY           SKY/WX    TMP DP  RH WIND       PRES   REMARKS
THOMSON        PTCLDY    74  74  99 CALM      30.18F
AUGUSTA-BUSH   PTCLDY    77  72  84 SW7       30.13S
6HR MIN TEMP:  75; 6HR MAX TEMP:  88;

AUGUSTA-DANIEL PTCLDY    78  72  81 S6        30.15S
SWAINSBORO     FAIR      77  77 100 CALM      30.15F
VIDALIA        PTCLDY    73  70  88 CALM      30.15S
EASTMAN        FAIR      75  75 100 CALM      30.16F
HAZLEHURST     FAIR      76  74  96 CALM      30.14S
ALMA           CLEAR     73  71  93 CALM      30.15S
6HR MIN TEMP:  72; 6HR MAX TEMP:  85;

WAYCROSS       CLEAR     75  74  96 CALM      30.15S
JESUP          FAIR      72  72 100 CALM      30.15S
BAXLEY         FAIR      73  72  94 CALM      30.14S
BRUNSWICK      CLEAR     72  72 100 CALM      30.16S
SAINT SIMONS   CLEAR     75  71  87 SW3       30.15F
6HR MIN TEMP:  75; 6HR MAX TEMP:  80;


$$

SCZ027-028-034-036>038-045-046-048>050-GAZ119-141-080700-
...LAKE AND SUPPLEMENTAL COASTAL OBSERVATIONS...

STATION/POSITION TIME  TEMP    WIND        PRES    WAVE   SWELL
                       AIR SEA DIR/SP/G            HT/PER HT/PER/DIR
                 (UTC) (F)     (DEG/KT/KT) (MB)    (FT/S) (FT/S/D)
UPR LAKE MARION  NOT AVBL
WINYAH BAY       0545   78     250/  2     1020.0S
LAKE MURRAY      0500   80     210/  9/ 12 1019.6S
ACE BASIN NERRS  NOT AVBL
FORT PULASKI     0600   80 83  210/  6/  9 1021.3F
SAPELO ISLAND    0600   77     180/  5     1021.0S

$$

ANZ835-935-AMZ111-154-330-350-352-354-370-450-454-472-080700-
...C-MAN AND BUOY OBSERVATIONS...

STATION/POSITION TIME  TEMP    WIND        PRES    WAVE   SWELL
                       AIR SEA DIR/SP/G            HT/PER HT/PER/DIR
                 (UTC) (F)     (DEG/KT/KT) (MB)    (FT/S) (FT/S/D)
BUOY 41004       0550   82 83  220/ 10/ 12 1020.5F   3/ 9   3/ 9
BUOY 41008       0550   78 79  200/ 10/ 12 1020.9F   2/ 9   2/100/ 9
FOLLY BEACH CMAN 0600   81     220/ 12/ 14 1020.6F
CAPERS NEARSHORE 0508   81     220/ 14/ 17 1021.0F
FRIPP NEARSHORE  NOT AVBL


STATION/POSITION TIME  TEMP    WIND        PRES    WAVE   SWELL
                       AIR SEA DIR/SP/G            HT/PER HT/PER/DIR
                 (UTC) (F)     (DEG/KT/KT) (MB)    (FT/S) (FT/S/D)
5E ST. MARYS GA  0521      78                N/A     2/ 8
FRYING PAN BUOY  0550   82 80  200/ 10/ 10 1021.3F   3/ 8   2/130/ 8
BUOY 41025       0550   81 83  230/ 16/ 17 1020.3S   3/ 4   2/140/ 8
CAPE LOOKOUT NC  0600   80     220/ 12/ 15 1020.5F
BUOY 41002       0550   82 81  210/ 10/ 12 1022.8F   4/ 8   3/120/ 8
BUOY 41010       0520   83 83  150/  6/  8 1021.9F
ST AUGUSTINE FL  0600   75 71  320/  2/  3 1022.3F


$$


USA.gov is the U.S. government's official web portal to all federal, state and local government web resources and services.